103  
ASUS42 KRAH 111710  
RWRRAH  
NORTH CAROLINA WEATHER ROUNDUP  
NATIONAL WEATHER SERVICE RALEIGH NC  
100 PM EDT SUN APR 11 2021  
 
NOTE: "FAIR" INDICATES FEW OR NO CLOUDS BELOW 12,000 FEET WITH NO  
SIGNIFICANT WEATHER AND/OR S TO VISIBILITY
.  
 
NCZ001-053-055-056-065-067-111800-  
WESTERN NORTH CAROLINA  
 
CITY SKY/WX TMP DP RH WIND PRES REMARKS
 
ASHEVILLE MOSUNNY 67 43 41 S9 29.65F  
JEFFERSON NOT AVBL  
MORGANTON PTSUNNY 71 48 43 SW9 29.65S  
HICKORY MOSUNNY 70 48 45 SW15 29.61F  
WILKESBORO NOT AVBL  
RUTHERFORDTON MOSUNNY 70 46 43 SW10G23 29.63F  
MOUNT AIRY MOSUNNY 68 52 56 SW6 29.60F  
BOONE N/A 60 32 34 W17 29.65S  

 
 
NCZ021-022-025-041-071-084-088-111800-  
CENTRAL NORTH CAROLINA  
 
CITY SKY/WX TMP DP RH WIND PRES REMARKS
 
CHARLOTTE MOSUNNY 73 52 47 SW14G25 29.63F  
GREENSBORO PTSUNNY 73 49 42 W16G30 29.58F  
WINSTON-SALEM MOSUNNY 71 50 47 SW12G21 29.59F  
RALEIGH-DURHAM PTSUNNY 76 55 48 SW14G25 29.58F  
FORT BRAGG MOSUNNY 77 59 52 SW12 29.60F  
FAYETTEVILLE MOSUNNY 77 58 51 SW17 29.61F  
BURLINGTON MOSUNNY 75 49 39 SW21G30 29.57F  
ROXBORO MOSUNNY 73 48 40 W16G23 29.59F  
HENDERSON CLOUDY 74 51 43 SW13G23 29.57F  
LOUISBURG PTSUNNY 75 54 46 SW16G28 29.60F  
LAURINBURG MOSUNNY 76 59 55 SW14 29.64F  

 
 
NCZ011-015-027-028-043-044-047-080-103-111800-  
NORTHEASTERN NORTH CAROLINA  
 
CITY SKY/WX TMP DP RH WIND PRES REMARKS
 
ROCKY MT-WILSO MOSUNNY 77 58 51 SW10 29.59F  
GREENVILLE SUNNY 77 61 57 SW10 29.63F  
WASHINGTON SUNNY 76 60 58 SW12 29.60F  
ELIZABETH CITY MOSUNNY 75 63 66 SW8 29.58F  
MANTEO SUNNY 74 61 65 NW8 29.61S  
CAPE HATTERAS SUNNY 74 62 66 W12G18 29.64F  

 
 
NCZ078-087-090-091-093-098-101-111800-  
SOUTHEASTERN NORTH CAROLINA  
 
CITY SKY/WX TMP DP RH WIND PRES REMARKS
 
GOLDSBORO SUNNY 76 61 58 SW12G21 29.59F  
KINSTON SUNNY 79 63 57 SW10 29.62F  
KENANSVILLE SUNNY 75 61 60 SW7 29.64S  
NEW BERN SUNNY 78 60 53 W13 29.63F  
CHERRY POINT NOT AVBL  
BEAUFORT SUNNY 70 63 78 SW24 29.65R  
JACKSONVILLE SUNNY 78 60 53 SW14G20 29.63F  
WILMINGTON MOSUNNY 77 60 55 SW12 29.65F  

 
 
 
 
CLICK HERE TO GO TO PREVIOUS BULLETINS.

The Nexlab NC Page Main Text Page